Location: Pace/Milton
(30.6162°N, 87.1503°W)
Time: 08:42:59
(UTC-06:00)

Hubble Space Telescope - Pass Details

Date: 05 December 2021
Orbit: 535 x 538 km, 28.5° (Epoch: 23 January)

Event Time Altitude Azimuth Distance (km) Brightness Sun altitude
Exits shadow 05:18:46 12° 232° (SW) 1,629 2.9 -15.4°
Maximum altitude 05:20:28 15° 205° (SSW) 1,472 2.9 -15.0°
Drops below altitude 10° 05:22:52 10° 169° (SSE) 1,769 3.8 -14.6°
Sets 05:25:54 0° 145° (SE) 2,657 5.2 -13.9°
